| time (UTC) | temp F | wind direction | speed MPH | gust MPH | rain 1hr in | rain 24hr in | rain mn in | humidity % | barometer mb |
| 20260504201315 | 77 | 205 | 4.0 | 13.0 | 0.00 | 0.00 | 0.00 | 36 | 1007.1 |
| 20260504200317 | 76 | 179 | 7.0 | 15.0 | 0.00 | 0.00 | 0.00 | 38 | 1007.4 |
| 20260504195339 | 76 | 178 | 5.0 | 12.0 | 0.00 | 0.00 | 0.00 | 36 | 1007.6 |
| 20260504194314 | 76 | 211 | 6.0 | 13.0 | 0.00 | 0.00 | 0.00 | 36 | 1007.6 |
| 20260504193318 | 76 | 218 | 5.0 | 12.0 | 0.00 | 0.00 | 0.00 | 37 | 1008.0 |
| 20260504192317 | 75 | 154 | 7.0 | 13.0 | 0.00 | 0.00 | 0.00 | 36 | 1008.2 |
| 20260504191340 | 76 | 186 | 5.0 | 16.0 | 0.00 | 0.00 | 0.00 | 36 | 1008.3 |
| 20260504190338 | 75 | 215 | 5.0 | 11.0 | 0.00 | 0.00 | 0.00 | 38 | 1008.3 |
| 20260504185331 | 76 | 252 | 5.0 | 11.0 | 0.00 | 0.00 | 0.00 | 37 | 1008.5 |
| 20260504184314 | 75 | 166 | 7.0 | 13.0 | 0.00 | 0.00 | 0.00 | 39 | 1008.7 |
| 20260504183314 | 74 | 186 | 4.0 | 14.0 | 0.00 | 0.00 | 0.00 | 38 | 1008.8 |
| 20260504182332 | 76 | 188 | 7.0 | 15.0 | 0.00 | 0.00 | 0.00 | 39 | 1009.1 |
| 20260504181336 | 75 | 209 | 6.0 | 14.0 | 0.00 | 0.00 | 0.00 | 36 | 1009.2 |
| 20260504180337 | 75 | 154 | 8.0 | 15.0 | 0.00 | 0.00 | 0.00 | 37 | 1009.4 |
| 20260504175333 | 74 | 130 | 8.0 | 17.0 | 0.00 | 0.00 | 0.00 | 38 | 1009.5 |
| 20260504174338 | 74 | 138 | 5.0 | 11.0 | 0.00 | 0.00 | 0.00 | 41 | 1009.5 |
| 20260504173349 | 74 | 194 | 5.0 | 14.0 | 0.00 | 0.00 | 0.00 | 39 | 1009.9 |
| 20260504172329 | 73 | 196 | 7.0 | 14.0 | 0.00 | 0.00 | 0.00 | 39 | 1010.0 |
| 20260504171315 | 73 | 153 | 5.0 | 10.0 | 0.00 | 0.00 | 0.00 | 38 | 1010.2 |
| 20260504170333 | 73 | 237 | 6.0 | 11.0 | 0.00 | 0.00 | 0.00 | 39 | 1010.2 |
| 20260504160338 | 70 | 242 | 4.0 | 8.0 | 0.00 | 0.00 | 0.00 | 39 | 1011.1 |
| 20260504150333 | 68 | 207 | 5.0 | 14.0 | 0.00 | 0.00 | 0.00 | 43 | 1011.7 |
| 20260504141316 | 65 | 155 | 7.0 | 14.0 | 0.00 | 0.00 | 0.00 | 41 | 1012.0 |
| 20260504140318 | 65 | 208 | 6.0 | 11.0 | 0.00 | 0.00 | 0.00 | 41 | 1011.9 |
| 20260504130336 | 60 | 169 | 5.0 | 14.0 | 0.00 | 0.00 | 0.00 | 42 | 1012.0 |
| 20260504120315 | 56 | 157 | 5.0 | 10.0 | 0.00 | 0.00 | 0.00 | 48 | 1012.3 |
| 20260504110316 | 49 | 198 | 3.0 | 8.0 | 0.00 | 0.00 | 0.00 | 60 | 1012.7 |
| 20260504100315 | 44 | 196 | 0.0 | 2.0 | 0.00 | 0.00 | 0.00 | 77 | 1012.6 |
| 20260504081334 | 44 | 5 | 0.0 | 0.0 | 0.00 | 0.00 | 0.00 | 76 | 1012.9 |
| 20260504080349 | 44 | 5 | 0.0 | 1.0 | 0.00 | 0.00 | 0.00 | 76 | 1012.9 |
| 20260504070321 | 43 | 296 | 0.0 | 2.0 | 0.00 | 0.00 | 0.00 | 72 | 1013.2 |
| 20260504050332 | 41 | 161 | 2.0 | 5.0 | 0.00 | 0.00 | 0.00 | 75 | 1013.6 |
| 20260504045315 | 41 | 175 | 0.0 | 0.0 | 0.00 | 0.00 | 0.00 | 76 | 1013.7 |
| 20260504044318 | 41 | 175 | 0.0 | 4.0 | 0.00 | 0.00 | 0.00 | 75 | 1013.8 |
| 20260504043352 | 41 | 138 | 0.0 | 0.0 | 0.00 | 0.00 | 0.00 | 75 | 1013.7 |
| 20260504042336 | 41 | 138 | 0.0 | 0.0 | 0.00 | 0.00 | 0.00 | 73 | 1013.7 |
| 20260504041338 | 42 | 138 | 0.0 | 1.0 | 0.00 | 0.00 | 0.00 | 73 | 1013.6 |
| 20260504040317 | 42 | 138 | 0.0 | 0.0 | 0.00 | 0.00 | 0.00 | 74 | 1013.6 |
| 20260504035317 | 43 | 138 | 0.0 | 1.0 | 0.00 | 0.00 | 0.00 | 73 | 1013.4 |
| 20260504034316 | 43 | 138 | 0.0 | 2.0 | 0.00 | 0.00 | 0.00 | 74 | 1013.4 |
| 20260504033347 | 42 | 138 | 0.0 | 1.0 | 0.00 | 0.00 | 0.00 | 73 | 1013.4 |
| 20260504032321 | 43 | 138 | 0.0 | 1.0 | 0.00 | 0.00 | 0.00 | 73 | 1013.4 |
| 20260504031321 | 43 | 138 | 1.0 | 3.0 | 0.00 | 0.00 | 0.00 | 72 | 1013.4 |
| 20260504030322 | 44 | 12 | 1.0 | 4.0 | 0.00 | 0.00 | 0.00 | 71 | 1013.3 |
| 20260504025313 | 44 | 258 | 1.0 | 2.0 | 0.00 | 0.00 | 0.00 | 70 | 1013.4 |
| 20260504024316 | 44 | 181 | 1.0 | 3.0 | 0.00 | 0.00 | 0.00 | 69 | 1013.3 |
| 20260504023314 | 45 | 135 | 0.0 | 1.0 | 0.00 | 0.00 | 0.00 | 68 | 1013.2 |
| 20260504022337 | 45 | 135 | 0.0 | 2.0 | 0.00 | 0.00 | 0.00 | 68 | 1013.2 |
| 20260504021315 | 45 | 135 | 0.0 | 0.0 | 0.00 | 0.00 | 0.00 | 66 | 1013.1 |
| 20260504020314 | 45 | 135 | 0.0 | 1.0 | 0.00 | 0.00 | 0.00 | 65 | 1013.1 |
| 20260504015313 | 46 | 135 | 0.0 | 1.0 | 0.00 | 0.00 | 0.00 | 64 | 1013.0 |
| 20260504014319 | 46 | 135 | 0.0 | 0.0 | 0.00 | 0.00 | 0.00 | 63 | 1013.0 |
| 20260504013317 | 47 | 135 | 0.0 | 2.0 | 0.00 | 0.00 | 0.00 | 60 | 1012.9 |
| 20260504012322 | 48 | 135 | 0.0 | 1.0 | 0.00 | 0.00 | 0.00 | 57 | 1012.7 |
| 20260504011335 | 49 | 135 | 0.0 | 2.0 | 0.00 | 0.00 | 0.00 | 55 | 1012.7 |
| 20260504010333 | 50 | 135 | 1.0 | 2.0 | 0.00 | 0.00 | 0.00 | 55 | 1012.7 |
| 20260504005316 | 50 | 135 | 2.0 | 2.0 | 0.00 | 0.00 | 0.00 | 53 | 1012.7 |
| 20260504004313 | 51 | 135 | 0.0 | 3.0 | 0.00 | 0.00 | 0.00 | 52 | 1012.6 |
| 20260504003339 | 51 | 146 | 2.0 | 3.0 | 0.00 | 0.00 | 0.00 | 51 | 1012.6 |
| 20260504002358 | 53 | 130 | 2.0 | 3.0 | 0.00 | 0.00 | 0.00 | 48 | 1012.5 |
| 20260504001312 | 54 | 150 | 2.0 | 2.0 | 0.00 | 0.00 | 0.00 | 46 | 1012.4 |
| 20260504000337 | 56 | 161 | 2.0 | 4.0 | 0.00 | 0.00 | 0.00 | 42 | 1012.4 |
| 20260503235312 | 57 | 257 | 1.0 | 4.0 | 0.00 | 0.00 | 0.00 | 35 | 1012.3 |
| 20260503234336 | 58 | 303 | 3.0 | 5.0 | 0.00 | 0.00 | 0.00 | 35 | 1012.2 |
| 20260503233314 | 59 | 294 | 2.0 | 8.0 | 0.00 | 0.00 | 0.00 | 34 | 1012.1 |
| 20260503232312 | 60 | 290 | 3.0 | 10.0 | 0.00 | 0.00 | 0.00 | 33 | 1012.1 |
| 20260503231314 | 61 | 282 | 4.0 | 10.0 | 0.00 | 0.00 | 0.00 | 33 | 1012.1 |
| 20260503230337 | 61 | 286 | 6.0 | 9.0 | 0.00 | 0.00 | 0.00 | 33 | 1011.9 |
| 20260503225337 | 61 | 279 | 4.0 | 9.0 | 0.00 | 0.00 | 0.00 | 33 | 1011.8 |
| 20260503224329 | 62 | 290 | 4.0 | 10.0 | 0.00 | 0.00 | 0.00 | 35 | 1011.9 |
| 20260503223328 | 61 | 302 | 7.0 | 12.0 | 0.00 | 0.00 | 0.00 | 33 | 1011.9 |
| 20260503222334 | 62 | 285 | 7.0 | 11.0 | 0.00 | 0.00 | 0.00 | 31 | 1012.0 |
| 20260503221336 | 62 | 317 | 4.0 | 15.0 | 0.00 | 0.00 | 0.00 | 35 | 1012.0 |
| 20260503220329 | 62 | 340 | 9.0 | 12.0 | 0.00 | 0.00 | 0.00 | 32 | 1012.2 |
| 20260503215331 | 63 | 298 | 4.0 | 14.0 | 0.00 | 0.00 | 0.00 | 33 | 1012.2 |
| 20260503214336 | 63 | 301 | 4.0 | 9.0 | 0.00 | 0.00 | 0.00 | 32 | 1012.1 |
| 20260503213328 | 62 | 265 | 9.0 | 16.0 | 0.00 | 0.00 | 0.00 | 32 | 1012.2 |
| 20260503212329 | 62 | 316 | 8.0 | 14.0 | 0.00 | 0.00 | 0.00 | 31 | 1012.3 |
| 20260503211320 | 62 | 313 | 9.0 | 15.0 | 0.00 | 0.00 | 0.00 | 33 | 1012.2 |
| 20260503210352 | 62 | 309 | 6.0 | 13.0 | 0.00 | 0.00 | 0.00 | 34 | 1012.2 |
| 20260503205337 | 62 | 229 | 4.0 | 14.0 | 0.00 | 0.00 | 0.00 | 33 | 1012.2 |
| 20260503204314 | 63 | 336 | 10.0 | 14.0 | 0.00 | 0.00 | 0.00 | 32 | 1012.2 |
| 20260503203329 | 62 | 341 | 6.0 | 14.0 | 0.00 | 0.00 | 0.00 | 37 | 1012.2 |
| 20260503202314 | 63 | 321 | 11.0 | 19.0 | 0.00 | 0.00 | 0.00 | 36 | 1012.4 |